This demonstration page uses our WeatherBlox Daily Observations layout. Learn more.

Left ArrowRight Arrow

Hourly Observations for May 30, 2018

Temp ( °F °C ) Dew Point ( °F °C ) Humidity (%) Winds ( mph kmh ) Pressure ( in mb ) Visibility ( mi km ) Precip ( " mm )
12:51 am 00:51 Clear 75 23.9 19 -7.2 12 12 SSE 3 6 29.62 1003 10 16 0.00 0.00
1:51 am 01:51 Clear 71 21.7 19 -7.2 14 14 SE 7 11 29.64 1004 10 16 0.00 0.00
2:51 am 02:51 Clear 71 21.7 20 -6.7 14 14 ENE 7 11 29.65 1004 10 16 0.00 0.00
3:51 am 03:51 Clear 75 23.9 29 -1.7 18 18 NW 12 19 29.65 1004 10 16 0.00 0.00
4:51 am 04:51 Clear 74 23.3 30 -1.1 20 20 NNW 9 15 29.66 1004 10 16 0.00 0.00
5:51 am 05:51 Sunny 70 21.1 26 -3.3 19 19 S 7 11 29.69 1006 10 16 0.00 0.00
6:51 am 06:51 Sunny 75 23.9 28 -2.2 18 18 Calm 29.71 1006 10 16 0.00 0.00
7:51 am 07:51 Sunny 80 26.7 28 -2.2 15 15 Calm 29.73 1007 10 16 0.00 0.00
8:51 am 08:51 Sunny 82 27.8 29 -1.7 14 14 VRB 3 6 29.72 1007 10 16 0.00 0.00
9:51 am 09:51 Sunny 88 31.1 28 -2.2 11 11 SSW 7 11 29.71 1006 10 16 0.00 0.00
10:51 am 10:51 Sunny 87 30.6 28 -2.2 12 12 VRB 5 7 29.72 1006 10 16 0.00 0.00
11:51 am 11:51 Sunny 93 33.9 27 -2.8 9 9 NW 8 13 29.69 1005 10 16 0.00 0.00
12:51 pm 12:51 Sunny 95 35 25 -3.9 8 8 N 5 7 29.67 1005 10 16 0.00 0.00
1:51 pm 13:51 Sunny 94 34.4 24 -4.4 8 8 VRB 7 11 29.65 1004 10 16 0.00 0.00
2:51 pm 14:51 Sunny 95 35 23 -5 7 7 SW 8 13 29.62 1003 10 16 0.00 0.00
3:51 pm 15:51 Sunny 97 36.1 20 -6.7 6 6 undefined N/A 29.58 1002 10 16 0.00 0.00
4:51 pm 16:51 Sunny 97 36.1 18 -7.8 6 6 VRB 5 7 29.57 1001 10 16 0.00 0.00
5:51 pm 17:51 Sunny 97 36.1 8 -13.3 4 4 W 13 20 29.58 1002 10 16 0.00 0.00
6:51 pm 18:51 Sunny 94 34.4 9 -12.8 4 4 W 13 20 29.59 1002 10 16 0.00 0.00
7:51 pm 19:51 Clear 88 31.1 13 -10.6 6 6 WNW 9 15 29.61 1003 10 16 0.00 0.00
8:51 pm 20:51 Clear 82 27.8 12 -11.1 7 7 NW 7 11 29.64 1004 10 16 0.00 0.00
9:51 pm 21:51 Clear 80 26.7 12 -11.1 7 7 NW 9 15 29.65 1004 10 16 0.00 0.00
10:51 pm 22:51 Clear 76 24.4 13 -10.6 9 9 NW 9 15 29.66 1004 10 16 0.00 0.00
11:51 pm 23:51 Clear 77 25 13 -10.6 9 9 N 7 11 29.66 1004 10 16 0.00 0.00

Powered by AerisWeather